Private Wetterstation Wechselburg
Wetterdaten: Mittwoch, 15.02.2017
Datum Zeit Temp. +2m Bodentemp. Temp.+5cm Temp. Wind Windchill X Diff Temp. Feuchte +2m Feuchte +5cm Sonnenschein Luftdruck Regen Wind Richtung Richtung Sonnenschein Taupunkt Windchill Windben
15.02.2017 00:00 -4,1 C 1,0 C -4,3 C -4,3 C -4,6 C 0,0 C 85 % 89 % 0 % 1035,3 hPa 0,0 l/m 0,0 km/h (0 Bft) S-SW 202 0 min -6,2 C -4,6 C 0,0 km/h (0 Bft)
15.02.2017 00:05 -4,2 C 1,0 C -4,3 C -4,4 C -4,7 C 0,0 C 85 % 89 % 0 % 1035,3 hPa 0,0 l/m 0,0 km/h (0 Bft) S-SW 202 0 min -6,3 C -4,7 C 0,0 km/h (0 Bft)
15.02.2017 00:11 -4,1 C 1,1 C -4,1 C -4,3 C -4,8 C 0,0 C 85 % 90 % 0 % 1035,3 hPa 0,0 l/m 0,0 km/h (0 Bft) N 0 0 min -6,2 C -4,8 C 0,0 km/h (0 Bft)
15.02.2017 00:29 -4,1 C 1,0 C -4,1 C -4,3 C -4,6 C 0,0 C 86 % 90 % 0 % 1035,3 hPa 0,0 l/m 0,0 km/h (0 Bft) SW 225 0 min -6,1 C -4,6 C 0,0 km/h (0 Bft)
15.02.2017 00:30 -4,1 C 1,0 C -4,1 C -4,3 C -4,6 C 0,0 C 86 % 90 % 0 % 1035,3 hPa 0,0 l/m 0,0 km/h (0 Bft) SW 225 0 min -6,1 C -4,6 C 0,0 km/h (0 Bft)
15.02.2017 00:35 -4,3 C 1,0 C -4,1 C -4,4 C -4,7 C 0,0 C 85 % 90 % 0 % 1035,3 hPa 0,0 l/m 0,0 km/h (0 Bft) SW 225 0 min -6,4 C -4,7 C 0,0 km/h (0 Bft)
15.02.2017 00:40 -4,3 C 1,1 C -4,1 C -4,5 C -4,9 C 0,0 C 85 % 90 % 0 % 1035,3 hPa 0,0 l/m 0,0 km/h (0 Bft) SW 225 0 min -6,4 C -4,9 C 0,0 km/h (0 Bft)
15.02.2017 00:45 -4,3 C 1,1 C -4,1 C -4,5 C -4,9 C 0,0 C 85 % 90 % 0 % 1035,3 hPa 0,0 l/m 0,0 km/h (0 Bft) SW 225 0 min -6,4 C -4,9 C 0,0 km/h (0 Bft)
15.02.2017 00:50 -4,3 C 1,1 C -4,1 C -4,5 C -4,9 C 0,0 C 85 % 90 % 0 % 1035,3 hPa 0,0 l/m 0,0 km/h (0 Bft) S 180 0 min -6,4 C -4,9 C 0,0 km/h (0 Bft)
15.02.2017 00:55 -4,4 C 1,1 C -4,1 C -4,6 C -5,0 C 0,0 C 85 % 90 % 0 % 1035,3 hPa 0,0 l/m 0,0 km/h (0 Bft) S 180 0 min -6,5 C -5,0 C 0,0 km/h (0 Bft)
15.02.2017 01:00 -4,4 C 1,1 C -4,1 C -4,5 C -4,8 C 0,0 C 85 % 90 % 0 % 1035,3 hPa 0,0 l/m 0,0 km/h (0 Bft) S-SO 157 0 min -6,5 C -4,8 C 0,0 km/h (0 Bft)
15.02.2017 01:05 -4,3 C 1,1 C -4,3 C -4,4 C -4,7 C 0,0 C 85 % 90 % 0 % 1035,3 hPa 0,0 l/m 0,0 km/h (0 Bft) S-SO 157 0 min -6,4 C -4,7 C 0,0 km/h (0 Bft)
15.02.2017 01:10 -4,3 C 1,1 C -4,3 C -4,4 C -4,7 C 0,0 C 85 % 90 % 0 % 1035,3 hPa 0,0 l/m 0,0 km/h (0 Bft) SW 225 0 min -6,4 C -4,7 C 0,0 km/h (0 Bft)
15.02.2017 01:15 -4,4 C 1,1 C -4,1 C -4,4 C -4,5 C 0,0 C 86 % 90 % 0 % 1035,3 hPa 0,0 l/m 0,0 km/h (0 Bft) SW 225 0 min -6,4 C -4,5 C 0,0 km/h (0 Bft)
15.02.2017 01:20 -4,3 C 1,1 C -3,9 C -4,4 C -4,5 C 0,0 C 86 % 90 % 0 % 1035,3 hPa 0,0 l/m 0,0 km/h (0 Bft) S 180 0 min -6,3 C -4,5 C 0,0 km/h (0 Bft)
15.02.2017 01:25 -4,4 C 1,1 C -4,1 C -4,5 C -4,6 C 0,0 C 86 % 90 % 0 % 1035,3 hPa 0,0 l/m 0,0 km/h (0 Bft) SW 225 0 min -6,4 C -4,6 C 0,0 km/h (0 Bft)
15.02.2017 01:30 -4,4 C 1,1 C -4,1 C -4,4 C -4,5 C 0,0 C 86 % 90 % 0 % 1035,3 hPa 0,0 l/m 0,0 km/h (0 Bft) S 180 0 min -6,4 C -4,5 C 0,0 km/h (0 Bft)
15.02.2017 01:35 -4,3 C 1,1 C -4,1 C -4,3 C -4,4 C 0,0 C 86 % 90 % 0 % 1035,3 hPa 0,0 l/m 0,0 km/h (0 Bft) SO 135 0 min -6,3 C -4,4 C 0,0 km/h (0 Bft)
15.02.2017 01:40 -4,3 C 1,1 C -4,1 C -4,3 C -4,3 C 0,0 C 86 % 90 % 0 % 1035,3 hPa 0,0 l/m 0,0 km/h (0 Bft) SO 135 0 min -6,3 C -4,3 C 0,0 km/h (0 Bft)
15.02.2017 01:45 -4,2 C 1,1 C -4,1 C -4,2 C -4,2 C 0,0 C 86 % 90 % 0 % 1035,3 hPa 0,0 l/m 0,0 km/h (0 Bft) O 90 0 min -6,2 C -4,2 C 0,0 km/h (0 Bft)
15.02.2017 01:50 -4,2 C 1,1 C -4,1 C -4,1 C -4,1 C 0,1 C 86 % 90 % 0 % 1035,3 hPa 0,0 l/m 0,0 km/h (0 Bft) O 90 0 min -6,2 C -4,1 C 0,0 km/h (0 Bft)
15.02.2017 01:55 -4,2 C 1,1 C -4,1 C -4,2 C -4,2 C 0,0 C 86 % 90 % 0 % 1035,3 hPa 0,0 l/m 0,0 km/h (0 Bft) O 90 0 min -6,2 C -4,2 C 0,0 km/h (0 Bft)
15.02.2017 02:00 -4,1 C 1,1 C -4,1 C -4,1 C -4,2 C 0,0 C 86 % 90 % 0 % 1035,3 hPa 0,0 l/m 0,0 km/h (0 Bft) O-NO 67 0 min -6,1 C -4,2 C 0,0 km/h (0 Bft)
15.02.2017 02:05 -4,3 C 1,1 C -4,1 C -4,4 C -4,6 C 0,0 C 86 % 90 % 0 % 1035,3 hPa 0,0 l/m 0,0 km/h (0 Bft) O-NO 67 0 min -6,3 C -4,6 C 0,0 km/h (0 Bft)
15.02.2017 02:11 -4,3 C 1,1 C -4,1 C -4,5 C -4,8 C 0,0 C 86 % 90 % 0 % 1035,3 hPa 0,0 l/m 0,0 km/h (0 Bft) N 0 0 min -6,3 C -4,8 C 0,0 km/h (0 Bft)
15.02.2017 02:29 -4,5 C 1,1 C -4,4 C -4,7 C -5,1 C 0,0 C 86 % 90 % 0 % 1034,9 hPa 0,0 l/m 0,0 km/h (0 Bft) O-NO 67 0 min -6,5 C -5,1 C 0,0 km/h (0 Bft)
15.02.2017 02:35 -4,7 C 1,1 C -4,4 C -4,8 C -5,0 C 0,0 C 86 % 90 % 0 % 1034,9 hPa 0,0 l/m 0,0 km/h (0 Bft) O-NO 67 0 min -6,7 C -5,0 C 0,0 km/h (0 Bft)
15.02.2017 02:40 -4,7 C 1,1 C -4,5 C -4,8 C -5,0 C 0,0 C 86 % 90 % 0 % 1035,0 hPa 0,0 l/m 0,0 km/h (0 Bft) O-NO 67 0 min -6,7 C -5,0 C 0,0 km/h (0 Bft)
15.02.2017 02:45 -4,8 C 1,1 C -4,5 C -4,9 C -5,0 C 0,0 C 86 % 90 % 0 % 1035,0 hPa 0,0 l/m 0,0 km/h (0 Bft) O-NO 67 0 min -6,8 C -5,0 C 0,0 km/h (0 Bft)
15.02.2017 02:50 -4,8 C 1,1 C -4,7 C -4,8 C -4,9 C 0,0 C 86 % 90 % 0 % 1035,0 hPa 0,0 l/m 0,0 km/h (0 Bft) O-NO 67 0 min -6,8 C -4,9 C 0,0 km/h (0 Bft)
15.02.2017 02:55 -4,9 C 1,1 C -4,5 C -4,9 C -5,0 C 0,0 C 86 % 90 % 0 % 1035,0 hPa 0,0 l/m 0,0 km/h (0 Bft) O-NO 67 0 min -6,9 C -5,0 C 0,0 km/h (0 Bft)
15.02.2017 03:00 -4,9 C 1,1 C -4,5 C -5,0 C -5,1 C 0,0 C 86 % 90 % 0 % 1034,8 hPa 0,0 l/m 0,0 km/h (0 Bft) O-NO 67 0 min -6,9 C -5,1 C 0,0 km/h (0 Bft)
15.02.2017 03:05 -5,0 C 1,1 C -4,7 C -5,1 C -5,3 C 0,0 C 86 % 90 % 0 % 1034,8 hPa 0,0 l/m 0,0 km/h (0 Bft) O-NO 67 0 min -7,0 C -5,3 C 0,0 km/h (0 Bft)
15.02.2017 03:10 -4,9 C 1,1 C -4,7 C -5,1 C -5,4 C 0,0 C 86 % 91 % 0 % 1034,8 hPa 0,0 l/m 0,0 km/h (0 Bft) O-NO 67 0 min -6,9 C -5,4 C 0,0 km/h (0 Bft)
15.02.2017 03:15 -5,1 C 1,1 C -4,7 C -5,2 C -5,5 C 0,0 C 86 % 91 % 0 % 1034,8 hPa 0,0 l/m 0,0 km/h (0 Bft) O-NO 67 0 min -7,1 C -5,5 C 0,0 km/h (0 Bft)
15.02.2017 03:20 -5,1 C 1,2 C -4,7 C -5,3 C -5,6 C 0,0 C 86 % 91 % 0 % 1034,8 hPa 0,0 l/m 0,0 km/h (0 Bft) O-NO 67 0 min -7,1 C -5,6 C 0,0 km/h (0 Bft)
15.02.2017 03:25 -5,1 C 1,2 C -4,9 C -5,2 C -5,5 C 0,0 C 86 % 91 % 0 % 1034,8 hPa 0,0 l/m 0,0 km/h (0 Bft) O-SO 112 0 min -7,1 C -5,5 C 0,0 km/h (0 Bft)
15.02.2017 03:30 -5,3 C 1,2 C -4,9 C -5,4 C -5,5 C 0,0 C 86 % 90 % 0 % 1034,8 hPa 0,0 l/m 0,0 km/h (0 Bft) O 90 0 min -7,3 C -5,5 C 0,0 km/h (0 Bft)
15.02.2017 03:35 -5,3 C 1,2 C -4,9 C -5,4 C -5,5 C 0,0 C 86 % 91 % 0 % 1034,8 hPa 0,0 l/m 0,0 km/h (0 Bft) O 90 0 min -7,3 C -5,5 C 0,0 km/h (0 Bft)
15.02.2017 03:40 -5,3 C 1,2 C -4,9 C -5,4 C -5,6 C 0,0 C 86 % 91 % 0 % 1035,1 hPa 0,0 l/m 0,0 km/h (0 Bft) O-SO 112 0 min -7,3 C -5,6 C 0,0 km/h (0 Bft)
15.02.2017 03:45 -5,4 C 1,2 C -4,9 C -5,5 C -5,6 C 0,0 C 86 % 91 % 0 % 1035,1 hPa 0,0 l/m 0,0 km/h (0 Bft) O-SO 112 0 min -7,4 C -5,6 C 0,0 km/h (0 Bft)
15.02.2017 03:50 -5,3 C 1,2 C -4,9 C -5,4 C -5,6 C 0,0 C 86 % 91 % 0 % 1035,1 hPa 0,0 l/m 0,0 km/h (0 Bft) O-SO 112 0 min -7,3 C -5,6 C 0,0 km/h (0 Bft)
15.02.2017 03:55 -5,5 C 1,2 C -4,9 C -5,5 C -5,6 C 0,0 C 86 % 91 % 0 % 1035,1 hPa 0,0 l/m 0,0 km/h (0 Bft) O-SO 112 0 min -7,5 C -5,6 C 0,0 km/h (0 Bft)
15.02.2017 04:00 -5,5 C 1,2 C -4,9 C -5,5 C -5,6 C 0,0 C 86 % 91 % 0 % 1035,1 hPa 0,0 l/m 0,0 km/h (0 Bft) O-SO 112 0 min -7,5 C -5,6 C 0,0 km/h (0 Bft)
15.02.2017 04:05 -5,5 C 1,2 C -5,1 C -5,5 C -5,6 C 0,0 C 86 % 91 % 0 % 1035,1 hPa 0,0 l/m 0,0 km/h (0 Bft) O-SO 112 0 min -7,5 C -5,6 C 0,0 km/h (0 Bft)
15.02.2017 04:11 -5,6 C 1,2 C -5,1 C -5,6 C -5,6 C 0,0 C 86 % 91 % 0 % 1035,1 hPa 0,0 l/m 0,0 km/h (0 Bft) N 0 0 min -7,6 C -5,6 C 0,0 km/h (0 Bft)
15.02.2017 04:16 -5,7 C 1,2 C -5,1 C -5,7 C -5,8 C 0,0 C 86 % 91 % 0 % 1035,1 hPa 0,0 l/m 0,0 km/h (0 Bft) S-SO 157 0 min -7,7 C -5,8 C 0,0 km/h (0 Bft)
15.02.2017 04:21 -5,7 C 1,2 C -5,1 C -5,7 C -5,7 C 0,0 C 86 % 91 % 0 % 1035,1 hPa 0,0 l/m 0,0 km/h (0 Bft) S-SO 157 0 min -7,7 C -5,7 C 0,0 km/h (0 Bft)
15.02.2017 04:26 -5,7 C 1,2 C -5,2 C -5,6 C -5,6 C 0,1 C 86 % 90 % 0 % 1035,1 hPa 0,0 l/m 0,0 km/h (0 Bft) S 180 0 min -7,7 C -5,6 C 0,0 km/h (0 Bft)
15.02.2017 04:31 -5,7 C 1,2 C -5,2 C -5,6 C -5,6 C 0,1 C 86 % 90 % 0 % 1035,1 hPa 0,0 l/m 0,0 km/h (0 Bft) S 180 0 min -7,7 C -5,6 C 0,0 km/h (0 Bft)
15.02.2017 04:35 -5,7 C 1,2 C -5,2 C -5,6 C -5,6 C 0,1 C 86 % 90 % 0 % 1035,1 hPa 0,0 l/m 0,0 km/h (0 Bft) SW 225 0 min -7,7 C -5,6 C 0,0 km/h (0 Bft)
15.02.2017 04:40 -5,7 C 1,2 C -5,2 C -5,6 C -5,6 C 0,1 C 86 % 90 % 0 % 1035,1 hPa 0,0 l/m 0,0 km/h (0 Bft) SW 225 0 min -7,7 C -5,6 C 0,0 km/h (0 Bft)
15.02.2017 04:45 -5,7 C 1,2 C -5,1 C -5,5 C -5,5 C 0,2 C 86 % 91 % 0 % 1035,1 hPa 0,0 l/m 0,0 km/h (0 Bft) SO 135 0 min -7,7 C -5,5 C 0,0 km/h (0 Bft)
15.02.2017 04:50 -5,5 C 1,2 C -5,1 C -5,5 C -5,5 C 0,0 C 87 % 91 % 0 % 1035,1 hPa 0,0 l/m 0,0 km/h (0 Bft) O-SO 112 0 min -7,3 C -5,5 C 0,0 km/h (0 Bft)
15.02.2017 04:55 -5,6 C 1,2 C -5,1 C -5,4 C -5,4 C 0,2 C 87 % 91 % 0 % 1035,1 hPa 0,0 l/m 0,0 km/h (0 Bft) O-SO 112 0 min -7,4 C -5,4 C 0,0 km/h (0 Bft)
15.02.2017 05:00 -5,5 C 1,2 C -5,1 C -5,3 C -5,3 C 0,2 C 87 % 91 % 0 % 1035,1 hPa 0,0 l/m 0,0 km/h (0 Bft) O-SO 112 0 min -7,3 C -5,3 C 0,0 km/h (0 Bft)
15.02.2017 05:05 -5,7 C 1,0 C -5,1 C -5,5 C -5,5 C 0,2 C 86 % 91 % 0 % 1035,1 hPa 0,0 l/m 0,0 km/h (0 Bft) SW 225 0 min -7,7 C -5,5 C 0,0 km/h (0 Bft)
15.02.2017 05:10 -5,7 C 1,2 C -4,9 C -5,6 C -5,6 C 0,1 C 86 % 91 % 0 % 1035,1 hPa 0,0 l/m 0,0 km/h (0 Bft) SW 225 0 min -7,7 C -5,6 C 0,0 km/h (0 Bft)
15.02.2017 05:15 -5,7 C 1,0 C -5,1 C -5,7 C -5,7 C 0,0 C 86 % 91 % 0 % 1035,1 hPa 0,0 l/m 0,0 km/h (0 Bft) S-SO 157 0 min -7,7 C -5,7 C 0,0 km/h (0 Bft)
15.02.2017 05:20 -5,7 C 1,0 C -5,1 C -5,7 C -5,8 C 0,0 C 86 % 91 % 0 % 1035,1 hPa 0,0 l/m 0,0 km/h (0 Bft) S 180 0 min -7,7 C -5,8 C 0,0 km/h (0 Bft)
15.02.2017 05:25 -5,7 C 1,0 C -4,9 C -5,7 C -5,8 C 0,0 C 86 % 91 % 0 % 1035,1 hPa 0,0 l/m 0,0 km/h (0 Bft) S 180 0 min -7,7 C -5,8 C 0,0 km/h (0 Bft)
15.02.2017 05:30 -5,8 C 1,2 C -5,1 C -5,8 C -5,9 C 0,0 C 86 % 91 % 0 % 1035,1 hPa 0,0 l/m 0,0 km/h (0 Bft) O-SO 112 0 min -7,8 C -5,9 C 0,0 km/h (0 Bft)
15.02.2017 05:35 -5,7 C 1,0 C -5,1 C -5,8 C -5,9 C 0,0 C 86 % 91 % 0 % 1035,1 hPa 0,0 l/m 0,0 km/h (0 Bft) SW 225 0 min -7,7 C -5,9 C 0,0 km/h (0 Bft)
15.02.2017 05:40 -5,7 C 1,2 C -4,9 C -5,7 C -5,8 C 0,0 C 86 % 91 % 0 % 1035,0 hPa 0,0 l/m 0,0 km/h (0 Bft) SW 225 0 min -7,7 C -5,8 C 0,0 km/h (0 Bft)
15.02.2017 05:45 -5,7 C 1,2 C -4,9 C -5,7 C -5,7 C 0,0 C 86 % 91 % 0 % 1035,0 hPa 0,0 l/m 0,0 km/h (0 Bft) SW 225 0 min -7,7 C -5,7 C 0,0 km/h (0 Bft)
15.02.2017 05:50 -5,7 C 1,2 C -5,1 C -5,7 C -5,8 C 0,0 C 86 % 91 % 0 % 1035,0 hPa 0,0 l/m 0,0 km/h (0 Bft) W-SW 247 0 min -7,7 C -5,8 C 0,0 km/h (0 Bft)
15.02.2017 05:55 -5,7 C 1,2 C -5,1 C -5,7 C -5,8 C 0,0 C 86 % 91 % 0 % 1035,0 hPa 0,0 l/m 0,0 km/h (0 Bft) W-SW 247 0 min -7,7 C -5,8 C 0,0 km/h (0 Bft)
15.02.2017 06:00 -5,9 C 1,0 C -5,3 C -5,8 C -5,8 C 0,1 C 86 % 90 % 0 % 1034,8 hPa 0,0 l/m 0,0 km/h (0 Bft) O-NO 67 0 min -7,9 C -5,8 C 0,0 km/h (0 Bft)
15.02.2017 06:05 -5,9 C 1,2 C -5,3 C -5,7 C -5,7 C 0,2 C 86 % 90 % 0 % 1034,8 hPa 0,0 l/m 0,0 km/h (0 Bft) O-NO 67 0 min -7,9 C -5,7 C 0,0 km/h (0 Bft)
15.02.2017 06:11 -5,9 C 1,0 C -5,3 C -5,7 C -5,7 C 0,2 C 86 % 90 % 0 % 1034,8 hPa 0,0 l/m 0,0 km/h (0 Bft) N 0 0 min -7,9 C -5,7 C 0,0 km/h (0 Bft)
15.02.2017 06:29 -6,1 C 1,0 C -5,3 C -6,1 C -6,2 C 0,0 C 86 % 90 % 0 % 1034,8 hPa 0,0 l/m 0,0 km/h (0 Bft) W-SW 247 0 min -8,0 C -6,2 C 0,0 km/h (0 Bft)
15.02.2017 06:35 -6,1 C 1,0 C -5,3 C -6,1 C -6,2 C 0,0 C 86 % 90 % 0 % 1034,8 hPa 0,0 l/m 0,0 km/h (0 Bft) W-SW 247 0 min -8,0 C -6,2 C 0,0 km/h (0 Bft)
15.02.2017 06:40 -6,1 C 1,0 C -5,3 C -6,2 C -6,3 C 0,0 C 86 % 90 % 0 % 1034,8 hPa 0,0 l/m 0,0 km/h (0 Bft) W-SW 247 0 min -8,0 C -6,3 C 0,0 km/h (0 Bft)
15.02.2017 06:45 -6,1 C 1,2 C -5,3 C -6,2 C -6,4 C 0,0 C 86 % 90 % 0 % 1034,8 hPa 0,0 l/m 0,0 km/h (0 Bft) W-SW 247 0 min -8,0 C -6,4 C 0,0 km/h (0 Bft)
15.02.2017 06:50 -6,1 C 1,0 C -5,5 C -6,2 C -6,4 C 0,0 C 86 % 90 % 0 % 1034,8 hPa 0,0 l/m 0,0 km/h (0 Bft) W-SW 247 0 min -8,0 C -6,4 C 0,0 km/h (0 Bft)
15.02.2017 06:55 -6,1 C 1,2 C -5,5 C -6,1 C -6,2 C 0,0 C 86 % 90 % 0 % 1034,8 hPa 0,0 l/m 0,0 km/h (0 Bft) W-SW 247 0 min -8,0 C -6,2 C 0,0 km/h (0 Bft)
15.02.2017 07:00 -6,2 C 1,2 C -5,5 C -6,2 C -6,3 C 0,0 C 86 % 90 % 0 % 1035,0 hPa 0,0 l/m 0,0 km/h (0 Bft) W-SW 247 0 min -8,1 C -6,3 C 0,0 km/h (0 Bft)
15.02.2017 07:05 -6,1 C 1,2 C -5,4 C -6,1 C -6,2 C 0,0 C 86 % 90 % 0 % 1035,0 hPa 0,0 l/m 0,0 km/h (0 Bft) SW 225 0 min -8,0 C -6,2 C 0,0 km/h (0 Bft)
15.02.2017 07:10 -6,1 C 1,0 C -5,1 C -6,0 C -6,0 C 0,1 C 86 % 91 % 0 % 1035,0 hPa 0,0 l/m 0,0 km/h (0 Bft) SW 225 0 min -8,0 C -6,0 C 0,0 km/h (0 Bft)
15.02.2017 07:15 -6,1 C 1,2 C -5,1 C -5,9 C -5,9 C 0,2 C 87 % 91 % 0 % 1035,0 hPa 0,0 l/m 0,0 km/h (0 Bft) SW 225 0 min -7,9 C -5,9 C 0,0 km/h (0 Bft)
15.02.2017 07:20 -6,1 C 1,0 C -5,2 C -6,0 C -6,0 C 0,1 C 86 % 90 % 0 % 1035,0 hPa 0,0 l/m 0,0 km/h (0 Bft) SW 225 0 min -8,0 C -6,0 C 0,0 km/h (0 Bft)
15.02.2017 07:25 -6,1 C 1,0 C -5,3 C -6,0 C -6,0 C 0,1 C 86 % 90 % 0 % 1035,0 hPa 0,0 l/m 0,0 km/h (0 Bft) SO 135 0 min -8,0 C -6,0 C 0,0 km/h (0 Bft)
15.02.2017 07:30 -6,2 C 1,0 C -5,5 C -6,0 C -6,0 C 0,2 C 86 % 90 % 0 % 1035,0 hPa 0,0 l/m 0,0 km/h (0 Bft) SW 225 0 min -8,1 C -6,0 C 0,0 km/h (0 Bft)
15.02.2017 07:35 -6,1 C 1,0 C -5,5 C -6,1 C -6,1 C 0,0 C 86 % 90 % 0 % 1035,0 hPa 0,0 l/m 0,0 km/h (0 Bft) SW 225 0 min -8,0 C -6,1 C 0,0 km/h (0 Bft)
15.02.2017 07:40 -6,1 C 1,0 C -5,4 C -6,1 C -6,1 C 0,0 C 86 % 90 % 0 % 1035,0 hPa 0,0 l/m 0,0 km/h (0 Bft) W-SW 247 0 min -8,0 C -6,1 C 0,0 km/h (0 Bft)
15.02.2017 07:45 -6,1 C 1,0 C -5,3 C -6,0 C -6,0 C 0,1 C 87 % 91 % 3 % 1035,0 hPa 0,0 l/m 0,0 km/h (0 Bft) SW 225 0 min -7,9 C -6,0 C 0,0 km/h (0 Bft)
15.02.2017 07:50 -6,1 C 1,0 C -5,3 C -6,0 C -6,0 C 0,1 C 87 % 90 % 3 % 1035,0 hPa 0,0 l/m 0,0 km/h (0 Bft) W-SW 247 0 min -7,9 C -6,0 C 0,0 km/h (0 Bft)
15.02.2017 07:55 -6,1 C 1,0 C -5,2 C -5,9 C -5,9 C 0,2 C 87 % 90 % 5 % 1035,0 hPa 0,0 l/m 0,0 km/h (0 Bft) SW 225 0 min -7,9 C -5,9 C 0,0 km/h (0 Bft)
15.02.2017 08:00 -6,1 C 1,0 C -5,2 C -5,7 C -5,7 C 0,4 C 87 % 90 % 11 % 1035,0 hPa 0,0 l/m 0,0 km/h (0 Bft) SW 225 0 min -7,9 C -5,7 C 0,0 km/h (0 Bft)
15.02.2017 08:05 -6,1 C 1,0 C -4,9 C -5,2 C -5,2 C 0,9 C 87 % 91 % 24 % 1035,0 hPa 0,0 l/m 0,0 km/h (0 Bft) S 180 0 min -7,9 C -5,2 C 0,0 km/h (0 Bft)
15.02.2017 08:11 -6,1 C 1,2 C -4,9 C -5,0 C -5,0 C 1,1 C 87 % 91 % 29 % 1035,0 hPa 0,0 l/m 0,0 km/h (0 Bft) N 0 6 min -7,9 C -5,0 C 0,0 km/h (0 Bft)
15.02.2017 08:16 -5,9 C 1,0 C -4,7 C -4,5 C -4,5 C 1,4 C 87 % 91 % 37 % 1035,9 hPa 0,0 l/m 0,0 km/h (0 Bft) SW 225 5 min -7,7 C -4,5 C 0,0 km/h (0 Bft)
15.02.2017 08:21 -5,8 C 1,0 C -4,5 C -4,1 C -4,1 C 1,7 C 87 % 91 % 45 % 1035,9 hPa 0,0 l/m 0,0 km/h (0 Bft) SW 225 5 min -7,6 C -4,1 C 0,0 km/h (0 Bft)
15.02.2017 08:26 -5,7 C 1,0 C -4,1 C -3,8 C -3,8 C 1,9 C 87 % 91 % 50 % 1035,9 hPa 0,0 l/m 0,0 km/h (0 Bft) SW 225 5 min -7,5 C -3,8 C 0,0 km/h (0 Bft)
15.02.2017 08:31 -5,7 C 1,0 C -4,1 C -3,8 C -3,8 C 1,9 C 87 % 91 % 50 % 1035,9 hPa 0,0 l/m 0,0 km/h (0 Bft) SW 225 5 min -7,5 C -3,8 C 0,0 km/h (0 Bft)
15.02.2017 08:35 -5,5 C 1,0 C -3,5 C -3,3 C -3,3 C 2,2 C 87 % 91 % 58 % 1035,9 hPa 0,0 l/m 0,0 km/h (0 Bft) SW 225 4 min -7,3 C -3,3 C 0,0 km/h (0 Bft)
15.02.2017 08:40 -5,5 C 1,0 C -3,5 C -2,8 C -2,8 C 2,7 C 87 % 91 % 71 % 1035,9 hPa 0,0 l/m 0,0 km/h (0 Bft) SW 225 5 min -7,3 C -2,8 C 0,0 km/h (0 Bft)
15.02.2017 08:45 -5,3 C 1,0 C -3,3 C -2,4 C -2,4 C 2,9 C 87 % 91 % 76 % 1035,9 hPa 0,0 l/m 0,0 km/h (0 Bft) SW 225 5 min -7,1 C -2,4 C 0,0 km/h (0 Bft)
15.02.2017 08:50 -5,3 C 1,0 C -3,1 C -1,4 C -1,4 C 3,9 C 87 % 91 % 100 % 1035,9 hPa 0,0 l/m 0,0 km/h (0 Bft) SW 225 5 min -7,1 C -1,4 C 0,0 km/h (0 Bft)
15.02.2017 08:55 -5,1 C 1,0 C -2,6 C -0,3 C -0,3 C 4,8 C 88 % 91 % 100 % 1035,9 hPa 0,0 l/m 0,0 km/h (0 Bft) SW 225 5 min -6,8 C -0,3 C 0,0 km/h (0 Bft)
15.02.2017 09:00 -4,9 C 1,0 C -2,3 C -0,9 C -0,9 C 4,0 C 87 % 91 % 100 % 1035,7 hPa 0,0 l/m 0,0 km/h (0 Bft) SW 225 5 min -6,7 C -0,9 C 0,0 km/h (0 Bft)
15.02.2017 09:05 -4,9 C 1,0 C -1,7 C -1,8 C -1,8 C 3,1 C 87 % 91 % 82 % 1035,7 hPa 0,0 l/m 0,0 km/h (0 Bft) SW 225 5 min -6,7 C -1,8 C 0,0 km/h (0 Bft)
15.02.2017 09:10 -4,9 C 1,0 C -1,5 C -2,2 C -2,2 C 2,7 C 87 % 91 % 71 % 1035,7 hPa 0,0 l/m 0,0 km/h (0 Bft) SW 225 5 min -6,7 C -2,2 C 0,0 km/h (0 Bft)
15.02.2017 09:15 -4,7 C 1,0 C -0,9 C -2,2 C -2,2 C 2,5 C 87 % 90 % 66 % 1035,7 hPa 0,0 l/m 0,0 km/h (0 Bft) SW 225 0 min -6,5 C -2,2 C 0,0 km/h (0 Bft)
15.02.2017 09:20 -4,5 C 0,9 C -0,9 C -1,9 C -1,9 C 2,6 C 88 % 90 % 68 % 1035,7 hPa 0,0 l/m 0,0 km/h (0 Bft) SW 225 0 min -6,2 C -1,9 C 0,0 km/h (0 Bft)
15.02.2017 09:25 -4,4 C 0,8 C -0,5 C -1,1 C -1,1 C 3,3 C 88 % 90 % 87 % 1035,7 hPa 0,0 l/m 0,0 km/h (0 Bft) SW 225 5 min -6,1 C -1,1 C 0,0 km/h (0 Bft)
15.02.2017 09:30 -4,1 C 0,8 C -0,5 C 0,0 C 0,0 C 4,1 C 88 % 89 % 100 % 1035,7 hPa 0,0 l/m 0,0 km/h (0 Bft) W-SW 247 5 min -5,8 C 0,0 C 0,0 km/h (0 Bft)
15.02.2017 09:35 -4,1 C 0,7 C -0,7 C 0,6 C 0,6 C 4,7 C 88 % 88 % 100 % 1035,7 hPa 0,0 l/m 0,0 km/h (0 Bft) SW 225 5 min -5,8 C 0,6 C 0,0 km/h (0 Bft)
15.02.2017 09:40 -3,9 C 0,7 C -0,9 C 0,5 C 0,5 C 4,4 C 88 % 88 % 100 % 1035,7 hPa 0,0 l/m 0,0 km/h (0 Bft) SW 225 5 min -5,6 C 0,5 C 0,0 km/h (0 Bft)
15.02.2017 09:45 -3,7 C 0,7 C -1,1 C 0,1 C 0,1 C 3,8 C 88 % 88 % 100 % 1035,7 hPa 0,0 l/m 0,0 km/h (0 Bft) W-SW 247 5 min -5,4 C 0,1 C 0,0 km/h (0 Bft)
15.02.2017 09:50 -3,5 C 0,6 C -1,2 C -0,1 C -0,1 C 3,4 C 88 % 89 % 89 % 1035,7 hPa 0,0 l/m 0,0 km/h (0 Bft) SW 225 5 min -5,2 C -0,1 C 0,0 km/h (0 Bft)
15.02.2017 09:55 -3,3 C 0,7 C -1,2 C -0,2 C -0,2 C 3,1 C 88 % 89 % 82 % 1035,7 hPa 0,0 l/m 0,0 km/h (0 Bft) W-SW 247 0 min -5,0 C -0,2 C 0,0 km/h (0 Bft)
15.02.2017 10:00 -3,1 C 0,7 C -1,2 C 0,8 C 0,8 C 3,9 C 88 % 89 % 100 % 1035,7 hPa 0,0 l/m 0,0 km/h (0 Bft) W-SW 247 5 min -4,8 C 0,8 C 0,0 km/h (0 Bft)
15.02.2017 10:05 -2,9 C 0,7 C -1,1 C 2,4 C 2,4 C 5,3 C 88 % 89 % 100 % 1035,7 hPa 0,0 l/m 0,0 km/h (0 Bft) W-SW 247 5 min -4,6 C 2,4 C 0,0 km/h (0 Bft)
15.02.2017 10:06 -2,7 C 0,7 C -0,9 C 2,0 C 2,0 C 4,7 C 88 % 89 % 100 % 1035,7 hPa 0,0 l/m 0,0 km/h (0 Bft) W-SW 247 1 min -4,4 C 2,0 C 0,0 km/h (0 Bft)
15.02.2017 10:11 -2,5 C 0,7 C -0,9 C 1,3 C 1,3 C 3,8 C 88 % 89 % 100 % 1035,7 hPa 0,0 l/m 0,0 km/h (0 Bft) W-SW 247 5 min -4,2 C 1,3 C 0,0 km/h (0 Bft)
15.02.2017 10:16 -2,3 C 0,7 C -0,9 C 1,4 C 1,4 C 3,7 C 88 % 89 % 97 % 1035,7 hPa 0,0 l/m 0,0 km/h (0 Bft) W-SW 247 5 min -4,0 C 1,4 C 0,0 km/h (0 Bft)
15.02.2017 10:22 -2,3 C 0,7 C -0,9 C 1,4 C 1,4 C 3,7 C 88 % 89 % 97 % 1035,7 hPa 0,0 l/m 0,0 km/h (0 Bft) W-SW 247 6 min -4,0 C 1,4 C 0,0 km/h (0 Bft)
15.02.2017 10:25 -1,9 C 0,7 C -0,7 C 1,9 C 1,9 C 3,8 C 88 % 89 % 100 % 1035,7 hPa 0,0 l/m 0,0 km/h (0 Bft) SW 225 3 min -3,6 C 1,9 C 0,0 km/h (0 Bft)
15.02.2017 10:30 -1,6 C 0,7 C -0,5 C 2,0 C 2,0 C 3,6 C 88 % 89 % 95 % 1035,7 hPa 0,0 l/m 0,0 km/h (0 Bft) SW 225 5 min -3,3 C 2,0 C 0,0 km/h (0 Bft)
15.02.2017 10:35 -1,1 C 0,7 C -0,5 C 2,4 C 2,4 C 3,5 C 88 % 88 % 92 % 1035,7 hPa 0,0 l/m 0,0 km/h (0 Bft) S-SW 202 5 min -2,8 C 2,4 C 0,0 km/h (0 Bft)
15.02.2017 10:40 -0,9 C 0,7 C -0,3 C 2,5 C 2,5 C 3,4 C 87 % 89 % 89 % 1035,7 hPa 0,0 l/m 0,0 km/h (0 Bft) W-SW 247 5 min -2,8 C 2,5 C 0,0 km/h (0 Bft)
15.02.2017 10:45 -0,5 C 0,7 C 0,2 C 4,4 C 4,4 C 4,9 C 87 % 89 % 100 % 1035,7 hPa 0,0 l/m 0,0 km/h (0 Bft) W-SW 247 5 min -2,4 C 4,4 C 0,0 km/h (0 Bft)
15.02.2017 10:50 -0,2 C 0,7 C 0,3 C 5,3 C 5,3 C 5,5 C 87 % 89 % 100 % 1035,7 hPa 0,0 l/m 0,0 km/h (0 Bft) W-SW 247 5 min -2,1 C 5,3 C 0,0 km/h (0 Bft)
15.02.2017 10:55 0,4 C 0,7 C 0,5 C 6,0 C 6,0 C 5,6 C 86 % 88 % 100 % 1035,7 hPa 0,0 l/m 0,0 km/h (0 Bft) SW 225 5 min -1,7 C 6,0 C 0,0 km/h (0 Bft)
15.02.2017 11:00 0,9 C 0,7 C 0,9 C 6,1 C 6,1 C 5,2 C 86 % 88 % 100 % 1035,8 hPa 0,0 l/m 0,0 km/h (0 Bft) W-SW 247 5 min -1,2 C 6,1 C 0,0 km/h (0 Bft)
15.02.2017 11:05 1,9 C 0,6 C 1,1 C 5,8 C 5,8 C 3,9 C 85 % 88 % 100 % 1035,8 hPa 0,0 l/m 0,5 km/h (0 Bft) SW 225 5 min -0,3 C 5,8 C 2,4 km/h (1 Bft)
15.02.2017 11:10 2,3 C 0,6 C 1,2 C 5,8 C 5,8 C 3,5 C 85 % 88 % 92 % 1035,8 hPa 0,0 l/m 1,0 km/h (0 Bft) SW 225 5 min 0,0 C 5,8 C 2,6 km/h (1 Bft)
15.02.2017 11:15 3,1 C 0,6 C 1,6 C 5,8 C 5,8 C 2,7 C 84 % 87 % 71 % 1035,8 hPa 0,0 l/m 1,6 km/h (1 Bft) W-SW 247 0 min 0,7 C 5,8 C 4,2 km/h (1 Bft)
15.02.2017 11:20 3,5 C 0,6 C 1,9 C 6,0 C 6,0 C 2,5 C 83 % 87 % 66 % 1035,8 hPa 0,0 l/m 2,3 km/h (1 Bft) S 180 0 min 0,9 C 6,0 C 2,7 km/h (1 Bft)
15.02.2017 11:25 4,1 C 0,6 C 2,1 C 7,6 C 7,6 C 3,5 C 81 % 86 % 92 % 1035,8 hPa 0,0 l/m 2,3 km/h (1 Bft) W-SW 247 5 min 1,1 C 7,6 C 4,5 km/h (1 Bft)
15.02.2017 11:30 4,4 C 0,6 C 2,3 C 8,1 C 8,1 C 3,7 C 80 % 86 % 97 % 1035,8 hPa 0,0 l/m 2,1 km/h (1 Bft) W-SW 247 5 min 1,3 C 8,1 C 0,0 km/h (0 Bft)
15.02.2017 11:35 4,8 C 0,7 C 2,5 C 8,9 C 8,9 C 4,1 C 77 % 85 % 100 % 1035,8 hPa 0,0 l/m 1,4 km/h (1 Bft) W-SW 247 5 min 1,1 C 8,9 C 2,3 km/h (1 Bft)
15.02.2017 11:40 5,1 C 0,6 C 2,7 C 9,7 C 9,7 C 4,6 C 75 % 84 % 100 % 1035,8 hPa 0,0 l/m 1,6 km/h (1 Bft) W-SW 247 5 min 1,0 C 9,7 C 2,7 km/h (1 Bft)
15.02.2017 11:45 5,4 C 0,6 C 2,7 C 10,0 C 10,0 C 4,6 C 73 % 84 % 100 % 1035,8 hPa 0,0 l/m 2,7 km/h (1 Bft) W-SW 247 5 min 1,0 C 10,0 C 4,3 km/h (1 Bft)
15.02.2017 11:50 5,5 C 0,7 C 3,0 C 9,7 C 9,7 C 4,2 C 70 % 82 % 100 % 1035,8 hPa 0,0 l/m 3,2 km/h (1 Bft) SW 225 5 min 0,5 C 9,7 C 3,9 km/h (1 Bft)
15.02.2017 11:55 5,9 C 0,7 C 3,2 C 9,8 C 9,8 C 3,9 C 69 % 82 % 100 % 1035,8 hPa 0,0 l/m 3,1 km/h (1 Bft) SW 225 5 min 0,7 C 9,8 C 4,7 km/h (1 Bft)
15.02.2017 12:00 6,0 C 0,7 C 3,5 C 10,3 C 10,3 C 4,3 C 68 % 81 % 100 % 1035,8 hPa 0,0 l/m 2,9 km/h (1 Bft) W-SW 247 5 min 0,6 C 10,3 C 4,5 km/h (1 Bft)
15.02.2017 12:05 6,2 C 0,7 C 3,6 C 11,0 C 11,0 C 4,8 C 67 % 80 % 100 % 1035,8 hPa 0,0 l/m 3,1 km/h (1 Bft) SW 225 5 min 0,5 C 11,0 C 5,0 km/h (1 Bft)
15.02.2017 12:24 6,7 C 0,7 C 4,5 C 13,3 C 13,3 C 6,6 C 61 % 76 % 100 % 1035,2 hPa 0,0 l/m 3,5 km/h (1 Bft) N 0 19 min -0,3 C 13,3 C 8,5 km/h (2 Bft)
15.02.2017 13:05 7,8 C 0,7 C 5,3 C 13,9 C 13,9 C 6,1 C 59 % 73 % 100 % 1035,1 hPa 0,0 l/m 1,8 km/h (1 Bft) S-SO 157 41 min 0,3 C 13,9 C 0,0 km/h (0 Bft)
15.02.2017 13:35 8,9 C 0,6 C 6,0 C 16,3 C 16,3 C 7,4 C 57 % 71 % 100 % 1035,1 hPa 0,0 l/m 1,0 km/h (0 Bft) S-SO 157 30 min 0,9 C 16,3 C 2,9 km/h (1 Bft)
15.02.2017 13:40 9,3 C 0,6 C 6,1 C 16,5 C 16,5 C 7,2 C 57 % 70 % 100 % 1034,4 hPa 0,0 l/m 1,1 km/h (1 Bft) W-SW 247 5 min 1,2 C 16,5 C 1,9 km/h (1 Bft)
15.02.2017 13:45 9,5 C 0,6 C 6,3 C 16,9 C 16,9 C 7,4 C 56 % 70 % 100 % 1034,4 hPa 0,0 l/m 0,8 km/h (0 Bft) S-SW 202 5 min 1,2 C 16,9 C 2,6 km/h (1 Bft)
15.02.2017 13:50 9,6 C 0,6 C 6,3 C 17,0 C 17,0 C 7,4 C 55 % 70 % 100 % 1034,4 hPa 0,0 l/m 1,0 km/h (0 Bft) S 180 5 min 1,0 C 17,0 C 3,1 km/h (1 Bft)
15.02.2017 13:55 9,7 C 0,6 C 6,3 C 17,0 C 17,0 C 7,3 C 54 % 70 % 100 % 1034,4 hPa 0,0 l/m 1,1 km/h (1 Bft) S-SW 202 5 min 0,9 C 17,0 C 1,9 km/h (1 Bft)
15.02.2017 14:00 9,8 C 0,6 C 6,3 C 17,1 C 17,1 C 7,3 C 54 % 70 % 100 % 1034,4 hPa 0,0 l/m 1,6 km/h (1 Bft) SW 225 5 min 0,9 C 17,1 C 2,3 km/h (1 Bft)
15.02.2017 14:05 9,8 C 0,6 C 6,5 C 17,3 C 17,3 C 7,5 C 53 % 70 % 100 % 1034,4 hPa 0,0 l/m 1,3 km/h (1 Bft) S 180 5 min 0,7 C 17,3 C 2,1 km/h (1 Bft)
15.02.2017 14:24 10,5 C 0,6 C 7,0 C 17,3 C 17,3 C 6,8 C 50 % 67 % 100 % 1034,4 hPa 0,0 l/m 1,4 km/h (1 Bft) N 0 19 min 0,5 C 17,3 C 2,1 km/h (1 Bft)
15.02.2017 15:11 12,1 C 0,6 C 7,7 C 17,4 C 17,4 C 5,3 C 45 % 63 % 100 % 1034,4 hPa 0,0 l/m 2,1 km/h (1 Bft) W-SW 247 47 min 0,5 C 17,4 C 1,9 km/h (1 Bft)
15.02.2017 15:35 12,5 C 0,6 C 7,0 C 17,0 C 17,0 C 4,5 C 43 % 62 % 100 % 1033,9 hPa 0,0 l/m 1,4 km/h (1 Bft) S 180 24 min 0,3 C 17,0 C 0,0 km/h (0 Bft)
15.02.2017 15:40 12,5 C 0,6 C 6,9 C 17,0 C 17,0 C 4,5 C 44 % 62 % 100 % 1033,9 hPa 0,0 l/m 1,0 km/h (0 Bft) S 180 5 min 0,6 C 17,0 C 0,0 km/h (0 Bft)
15.02.2017 15:45 12,5 C 0,6 C 6,9 C 17,1 C 17,1 C 4,6 C 43 % 63 % 100 % 1033,9 hPa 0,0 l/m 0,6 km/h (0 Bft) SW 225 5 min 0,3 C 17,1 C 2,1 km/h (1 Bft)
15.02.2017 15:50 12,4 C 0,6 C 6,7 C 17,0 C 17,0 C 4,6 C 43 % 62 % 100 % 1033,9 hPa 0,0 l/m 0,6 km/h (0 Bft) SW 225 5 min 0,2 C 17,0 C 1,9 km/h (1 Bft)
15.02.2017 15:55 12,3 C 0,6 C 6,5 C 16,9 C 16,9 C 4,6 C 42 % 63 % 100 % 1033,9 hPa 0,0 l/m 0,5 km/h (0 Bft) SW 225 5 min -0,2 C 16,9 C 1,8 km/h (1 Bft)
15.02.2017 16:00 12,1 C 0,6 C 6,5 C 16,9 C 16,9 C 4,8 C 43 % 63 % 100 % 1033,9 hPa 0,0 l/m 0,2 km/h (0 Bft) S 180 5 min -0,1 C 16,9 C 1,9 km/h (1 Bft)
15.02.2017 16:05 12,3 C 0,6 C 6,5 C 17,0 C 17,0 C 4,7 C 43 % 62 % 100 % 1033,9 hPa 0,0 l/m 0,0 km/h (0 Bft) S 180 5 min 0,1 C 17,0 C 0,0 km/h (0 Bft)
15.02.2017 16:24 11,8 C 0,6 C 6,0 C 15,3 C 15,3 C 3,5 C 42 % 62 % 92 % 1033,7 hPa 0,0 l/m 0,2 km/h (0 Bft) N 0 19 min -0,7 C 15,3 C 0,0 km/h (0 Bft)
15.02.2017 17:11 8,3 C 0,7 C 5,3 C 8,6 C 8,6 C 0,3 C 49 % 64 % 8 % 1033,7 hPa 0,0 l/m 3,1 km/h (1 Bft) O-SO 112 47 min -1,8 C 8,6 C 2,1 km/h (1 Bft)
15.02.2017 17:12 8,3 C 0,7 C 5,3 C 8,6 C 8,6 C 0,3 C 49 % 64 % 8 % 1033,7 hPa 0,0 l/m 3,1 km/h (1 Bft) O-SO 112 1 min -1,8 C 8,6 C 2,1 km/h (1 Bft)
15.02.2017 17:35 6,8 C 0,7 C 3,1 C 6,4 C 5,5 C 0,0 C 54 % 68 % 0 % 1033,6 hPa 0,0 l/m 0,0 km/h (0 Bft) W 270 0 min -1,8 C 5,5 C 0,0 km/h (0 Bft)
15.02.2017 17:40 6,2 C 0,7 C 2,9 C 5,7 C 4,6 C 0,0 C 55 % 69 % 0 % 1033,8 hPa 0,0 l/m 0,0 km/h (0 Bft) W 270 0 min -2,2 C 4,6 C 0,0 km/h (0 Bft)
15.02.2017 17:45 5,7 C 0,6 C 2,3 C 5,1 C 3,9 C 0,0 C 57 % 70 % 0 % 1033,8 hPa 0,0 l/m 0,0 km/h (0 Bft) W 270 0 min -2,1 C 3,9 C 0,0 km/h (0 Bft)
15.02.2017 17:50 5,3 C 0,6 C 2,1 C 4,7 C 3,6 C 0,0 C 57 % 71 % 0 % 1033,8 hPa 0,0 l/m 0,0 km/h (0 Bft) W 270 0 min -2,5 C 3,6 C 0,0 km/h (0 Bft)
15.02.2017 17:55 5,0 C 0,6 C 1,9 C 4,4 C 3,2 C 0,0 C 58 % 72 % 0 % 1033,8 hPa 0,0 l/m 0,0 km/h (0 Bft) W 270 0 min -2,6 C 3,2 C 0,0 km/h (0 Bft)
15.02.2017 18:00 4,7 C 0,6 C 1,6 C 4,1 C 2,8 C 0,0 C 59 % 72 % 0 % 1034,0 hPa 0,0 l/m 0,0 km/h (0 Bft) W 270 0 min -2,6 C 2,8 C 0,0 km/h (0 Bft)
15.02.2017 18:05 4,2 C 0,6 C 1,2 C 3,6 C 2,5 C 0,0 C 60 % 73 % 0 % 1034,0 hPa 0,0 l/m 0,0 km/h (0 Bft) W 270 0 min -2,9 C 2,5 C 0,0 km/h (0 Bft)
15.02.2017 18:19 3,5 C 0,6 C 0,7 C 2,8 C 1,3 C 0,0 C 62 % 75 % 0 % 1034,0 hPa 0,0 l/m 0,0 km/h (0 Bft) N 0 0 min -3,1 C 1,3 C 0,0 km/h (0 Bft)
15.02.2017 19:12 1,3 C 0,7 C -0,7 C 0,8 C -0,3 C 0,0 C 70 % 80 % 0 % 1034,0 hPa 0,0 l/m 0,3 km/h (0 Bft) W-SW 247 0 min -3,6 C -0,3 C 0,0 km/h (0 Bft)
15.02.2017 19:35 0,4 C 0,7 C -1,4 C -0,2 C -1,5 C 0,0 C 72 % 82 % 0 % 1034,0 hPa 0,0 l/m 0,0 km/h (0 Bft) W-SW 247 0 min -4,0 C -1,5 C 0,0 km/h (0 Bft)
15.02.2017 19:40 0,1 C 0,7 C -1,5 C -0,5 C -1,8 C 0,0 C 72 % 82 % 0 % 1033,9 hPa 0,0 l/m 0,0 km/h (0 Bft) W-SW 247 0 min -4,3 C -1,8 C 0,0 km/h (0 Bft)
15.02.2017 19:45 -0,1 C 0,8 C -1,6 C -0,7 C -1,8 C 0,0 C 73 % 83 % 0 % 1033,9 hPa 0,0 l/m 0,0 km/h (0 Bft) W-SW 247 0 min -4,3 C -1,8 C 0,0 km/h (0 Bft)
15.02.2017 19:50 -0,1 C 0,7 C -1,5 C -0,6 C -1,7 C 0,0 C 74 % 83 % 0 % 1033,9 hPa 0,0 l/m 0,0 km/h (0 Bft) W-SW 247 0 min -4,2 C -1,7 C 0,0 km/h (0 Bft)
15.02.2017 19:55 -0,2 C 0,7 C -1,7 C -0,7 C -1,8 C 0,0 C 74 % 83 % 0 % 1033,9 hPa 0,0 l/m 0,0 km/h (0 Bft) W-SW 247 0 min -4,3 C -1,8 C 0,0 km/h (0 Bft)
15.02.2017 20:00 -0,3 C 0,7 C -1,8 C -0,9 C -2,0 C 0,0 C 75 % 83 % 0 % 1033,9 hPa 0,0 l/m 0,0 km/h (0 Bft) W-SW 247 0 min -4,2 C -2,0 C 0,0 km/h (0 Bft)
15.02.2017 20:05 -0,3 C 0,7 C -1,8 C -0,9 C -2,1 C 0,0 C 76 % 84 % 0 % 1033,9 hPa 0,0 l/m 0,0 km/h (0 Bft) W-SW 247 0 min -4,0 C -2,1 C 0,0 km/h (0 Bft)
15.02.2017 20:24 -0,9 C 0,8 C -2,1 C -1,5 C -2,6 C 0,0 C 77 % 84 % 0 % 1033,9 hPa 0,0 l/m 0,0 km/h (0 Bft) N 0 0 min -4,4 C -2,6 C 0,0 km/h (0 Bft)
15.02.2017 21:11 -1,7 C 0,8 C -2,5 C -2,2 C -3,3 C 0,0 C 79 % 86 % 0 % 1034,1 hPa 0,0 l/m 0,0 km/h (0 Bft) W-SW 247 0 min -4,8 C -3,3 C 0,0 km/h (0 Bft)
15.02.2017 21:12 -1,7 C 0,8 C -2,5 C -2,2 C -3,3 C 0,0 C 79 % 86 % 0 % 1034,1 hPa 0,0 l/m 0,0 km/h (0 Bft) W-SW 247 0 min -4,8 C -3,3 C 0,0 km/h (0 Bft)
15.02.2017 21:35 -2,1 C 0,9 C -2,9 C -2,6 C -3,6 C 0,0 C 80 % 86 % 0 % 1034,1 hPa 0,0 l/m 0,0 km/h (0 Bft) W-SW 247 0 min -5,1 C -3,6 C 0,0 km/h (0 Bft)
15.02.2017 21:40 -2,1 C 0,9 C -2,9 C -2,6 C -3,5 C 0,0 C 80 % 87 % 0 % 1034,1 hPa 0,0 l/m 0,0 km/h (0 Bft) W-SW 247 0 min -5,1 C -3,5 C 0,0 km/h (0 Bft)
15.02.2017 21:45 -2,1 C 0,9 C -2,9 C -2,6 C -3,5 C 0,0 C 81 % 87 % 0 % 1034,1 hPa 0,0 l/m 0,0 km/h (0 Bft) W-SW 247 0 min -4,9 C -3,5 C 0,0 km/h (0 Bft)
15.02.2017 21:50 -2,1 C 0,9 C -2,9 C -2,6 C -3,5 C 0,0 C 81 % 87 % 0 % 1034,1 hPa 0,0 l/m 0,0 km/h (0 Bft) W-SW 247 0 min -4,9 C -3,5 C 0,0 km/h (0 Bft)
15.02.2017 21:55 -2,1 C 0,9 C -2,9 C -2,6 C -3,5 C 0,0 C 81 % 87 % 0 % 1034,1 hPa 0,0 l/m 0,0 km/h (0 Bft) W-SW 247 0 min -4,9 C -3,5 C 0,0 km/h (0 Bft)
15.02.2017 22:00 -2,2 C 0,9 C -3,0 C -2,6 C -3,5 C 0,0 C 81 % 87 % 0 % 1034,1 hPa 0,0 l/m 0,0 km/h (0 Bft) W-SW 247 0 min -5,0 C -3,5 C 0,0 km/h (0 Bft)
15.02.2017 22:05 -2,1 C 0,9 C -3,1 C -2,5 C -3,3 C 0,0 C 82 % 87 % 0 % 1034,1 hPa 0,0 l/m 0,0 km/h (0 Bft) W-SW 247 0 min -4,7 C -3,3 C 0,0 km/h (0 Bft)
15.02.2017 22:24 -2,1 C 0,9 C -3,2 C -2,4 C -3,0 C 0,0 C 83 % 87 % 0 % 1034,1 hPa 0,0 l/m 0,0 km/h (0 Bft) N 0 0 min -4,6 C -3,0 C 0,0 km/h (0 Bft)
15.02.2017 23:11 -2,5 C 0,9 C -3,3 C -2,9 C -3,8 C 0,0 C 83 % 88 % 0 % 1034,1 hPa 0,0 l/m 0,0 km/h (0 Bft) W-SW 247 0 min -5,0 C -3,8 C 0,0 km/h (0 Bft)
15.02.2017 23:12 -2,5 C 0,9 C -3,3 C -2,9 C -3,8 C 0,0 C 83 % 88 % 0 % 1034,1 hPa 0,0 l/m 0,0 km/h (0 Bft) W-SW 247 0 min -5,0 C -3,8 C 0,0 km/h (0 Bft)
15.02.2017 23:35 -2,6 C 0,9 C -3,3 C -2,9 C -3,4 C 0,0 C 83 % 88 % 0 % 1033,4 hPa 0,0 l/m 0,0 km/h (0 Bft) W-SW 247 0 min -5,1 C -3,4 C 0,0 km/h (0 Bft)
15.02.2017 23:40 -2,7 C 0,9 C -3,3 C -3,0 C -3,6 C 0,0 C 83 % 88 % 0 % 1033,4 hPa 0,0 l/m 0,0 km/h (0 Bft) W-SW 247 0 min -5,2 C -3,6 C 0,0 km/h (0 Bft)
15.02.2017 23:45 -2,7 C 0,9 C -3,3 C -3,0 C -3,7 C 0,0 C 83 % 88 % 0 % 1033,4 hPa 0,0 l/m 0,0 km/h (0 Bft) W-SW 247 0 min -5,2 C -3,7 C 0,0 km/h (0 Bft)
15.02.2017 23:50 -2,7 C 0,9 C -3,3 C -3,0 C -3,6 C 0,0 C 84 % 88 % 0 % 1033,4 hPa 0,0 l/m 0,0 km/h (0 Bft) W-SW 247 0 min -5,0 C -3,6 C 0,0 km/h (0 Bft)
15.02.2017 23:55 -2,7 C 0,9 C -3,3 C -2,9 C -3,4 C 0,0 C 84 % 88 % 0 % 1033,4 hPa 0,0 l/m 0,0 km/h (0 Bft) W-SW 247 0 min -5,0 C -3,4 C 0,0 km/h (0 Bft)
_ Min-Zeit 07:00 09:50 06:50 06:40 06:45 00:00 15:55 15:35 00:00 23:35 - 00:00 - - - 07:00 06:45 00:00
Minimum _ -6,2 C 0,6 C -5,5 C -6,2 C -6,4 C 0,0 C 42 % 62 % 0 % 1033,4 hPa - 0,0 km/h (0 Bft) - - - -8,1 C -6,4 C 0,0 km/h (0 Bft)
_ Max-Zeit 15:35 03:20 15:11 15:11 15:11 14:05 08:55 03:10 08:50 08:16 00:00 12:24 - - 15:11 11:30 15:11 12:24
Maximum _ 12,5 C 1,2 C 7,7 C 17,4 C 17,4 C 7,5 C 88 % 91 % 100 % 1035,9 hPa 0,0 l/m 3,5 km/h
N (1 Bft)
- - 47 min 1,3 C 17,4 C 8,5 km/h
N (2 Bft)
Durchschnitt _ 0,1 C 0,9 C -0,8 C 1,6 C 1,3 C 1,7 C 75 % 83 % 33 % 1034,7 hPa #0,0 l/m 0,5 km/h (0 Bft) W-SW - #8:42 h -4,2 C 1,3 C 0,6 km/h (0 Bft)
2017 www.wetterstation-wechselburg.de